Weather History for Tinker AFB, OK

Change the Weather History Date:

Monday, October 14, 2013

  Actual Average Record
Temperature  
Mean Temperature 66 °F -  
Max Temperature 69 °F 69 °F 86 °F (1999)
Min Temperature 62 °F 50 °F 41 °F (2002)
Growing Degree Days 16 (Base 50)    
Moisture  
Dew Point 64 °F    
Average Humidity 99    
Maximum Humidity 100    
Minimum Humidity 91    
Precipitation  
Precipitation 0.92 in - - ()
Sea Level Pressure  
Sea Level Pressure 30.02 in    
Wind  
Wind Speed 9 mph (SE)    
Max Wind Speed 15 mph    
Max Gust Speed 20 mph    
Visibility 6 miles    
Events Rain    
Averages and records for this station are not official NWS values.
T = Trace of Precipitation, MM = Missing Value Source: NWS Daily Summary

Daily Weather History Graph

Daily Weather History Graph

Search for Another Location

Airport:

Trip Planner

Search our weather history database for the weather conditions in past years. The results will help you decide how hot, cold, wet, or windy it might be!

Date:

Astronomy

Oct. 14, 2013 Rise Set
Actual Time 7:35 AM CDT 6:55 PM CDT
Civil Twilight 7:09 AM CDT 7:20 PM CDT
Nautical Twilight 6:40 AM CDT 7:50 PM CDT
Astronomical Twilight 6:10 AM CDT 8:19 PM CDT
Moon 4:17 PM CDT (10/14) 3:02 AM CDT (10/14)
Length of Visible Light 12h 11m
Length of Day
11h 19m
Waxing Gibbous, 79% of the Moon is Illuminated
Oct 14
Waxing Gibbous
Oct 18
Full
Oct 26
Last Quarter
Nov 3
New
Nov 9
First Quarter

Hourly Weather History & Observations

Time (CDT) Temp. Dew Point Humidity Pressure Visibility Wind Dir Wind Speed Gust Speed Precip Events Conditions
12:03 AM 68.0 °F 66.2 °F 94% 30.18 in 10.0 mi SE 4.6 mph - N/A   Mostly Cloudy
12:36 AM 68.0 °F 66.2 °F 94% 30.17 in 10.0 mi SE 5.8 mph - N/A   Scattered Clouds
12:58 AM 67.1 °F 66.2 °F 97% 30.16 in 10.0 mi SE 4.6 mph - N/A   Partly Cloudy
1:58 AM 66.6 °F 65.1 °F 95% 30.14 in 10.0 mi SE 10.4 mph - N/A   Clear
2:58 AM 66.4 °F 64.0 °F 92% 30.13 in 10.0 mi SE 9.2 mph - N/A   Partly Cloudy
3:07 AM 66.2 °F 64.4 °F 94% 30.13 in 10.0 mi SE 10.4 mph - N/A   Mostly Cloudy
3:23 AM 66.2 °F 64.4 °F 94% 30.13 in 10.0 mi SE 6.9 mph - N/A   Mostly Cloudy
3:58 AM 66.6 °F 63.9 °F 91% 30.12 in 10.0 mi SE 6.9 mph - N/A   Overcast
4:58 AM 66.6 °F 63.9 °F 91% 30.11 in 10.0 mi SE 8.1 mph - N/A   Overcast
5:07 AM 66.2 °F 64.4 °F 94% 30.10 in 10.0 mi SE 9.2 mph - N/A   Overcast
5:14 AM 66.2 °F 64.4 °F 94% 30.10 in 10.0 mi SE 8.1 mph - N/A   Light Drizzle
5:23 AM 66.2 °F 64.4 °F 94% 30.11 in 10.0 mi SSE 6.9 mph - N/A   Overcast
5:34 AM 66.2 °F 64.4 °F 94% 30.11 in 9.0 mi SE 6.9 mph - N/A   Overcast
5:45 AM 66.2 °F 64.4 °F 94% 30.11 in 7.0 mi SSE 6.9 mph - N/A   Overcast
5:58 AM 66.0 °F 64.6 °F 95% 30.10 in 10.0 mi SE 6.9 mph - 0.00 in   Overcast
6:58 AM 66.2 °F 64.4 °F 94% 30.10 in 10.0 mi SE 8.1 mph - N/A   Overcast
7:14 AM 66.2 °F 64.4 °F 94% 30.09 in 10.0 mi SE 6.9 mph - N/A   Light Drizzle
7:18 AM 66.2 °F 64.4 °F 94% 30.09 in 10.0 mi SE 9.2 mph - N/A Rain Light Rain
7:38 AM 66.2 °F 64.4 °F 94% 30.09 in 8.0 mi SE 8.1 mph - N/A   Light Drizzle
7:44 AM 66.2 °F 64.4 °F 94% 30.09 in 8.0 mi SE 8.1 mph - N/A   Overcast
7:49 AM 66.2 °F 64.4 °F 94% 30.08 in 8.0 mi SE 6.9 mph - N/A   Light Drizzle
7:58 AM 65.5 °F 64.9 °F 98% 30.08 in 5.0 mi SE 6.9 mph - 0.00 in   Light Drizzle
8:10 AM 66.2 °F 64.4 °F 94% 30.08 in 4.0 mi SE 8.1 mph - N/A Rain Light Rain
8:16 AM 66.2 °F 64.4 °F 94% 30.08 in 2.5 mi SE 6.9 mph - N/A Rain Light Rain
8:17 AM 66.2 °F 64.4 °F 94% 30.08 in 2.5 mi SE 8.1 mph - N/A Rain Light Rain
8:25 AM 64.4 °F 64.4 °F 100% 30.08 in 3.0 mi SE 8.1 mph - N/A Rain Light Rain
8:28 AM 64.4 °F 64.4 °F 100% 30.08 in 3.0 mi SE 9.2 mph - N/A Rain Light Rain
8:58 AM 64.9 °F 64.9 °F 100% 30.08 in 4.0 mi SE 10.4 mph - 0.10 in Rain Light Rain
9:39 AM 64.4 °F 64.4 °F 100% 30.07 in 6.0 mi SE 11.5 mph 17.3 mph N/A Rain Light Rain
9:48 AM 64.4 °F 64.4 °F 100% 30.07 in 8.0 mi ESE 9.2 mph - N/A   Light Drizzle
9:58 AM 63.5 °F 63.5 °F 100% 30.07 in 7.0 mi SE 10.4 mph 17.3 mph 0.05 in   Light Drizzle
10:07 AM 62.6 °F 62.6 °F 100% 30.06 in 8.0 mi SE 10.4 mph - N/A Rain Light Rain
10:17 AM 62.6 °F 62.6 °F 100% 30.06 in 6.0 mi SE 11.5 mph - N/A Rain Light Rain
10:36 AM 62.6 °F 62.6 °F 100% 30.06 in 5.0 mi SE 11.5 mph - N/A Rain Light Rain
10:54 AM 62.6 °F 62.6 °F 100% 30.06 in 4.0 mi SE 10.4 mph - N/A Rain Rain
10:57 AM 62.6 °F 62.6 °F 100% 30.06 in 2.5 mi SE 10.4 mph - N/A Rain Heavy Rain
10:58 AM 62.6 °F 62.6 °F 100% 30.06 in 2.0 mi SE 11.5 mph - 0.11 in Rain Heavy Rain
11:00 AM 62.6 °F 62.6 °F 100% 30.05 in 1.8 mi SE 9.2 mph - N/A Rain Heavy Rain
11:01 AM 62.6 °F 62.6 °F 100% 30.05 in 1.5 mi SE 9.2 mph - N/A Rain Heavy Rain
11:02 AM 62.6 °F 62.6 °F 100% 30.05 in 1.2 mi SE 9.2 mph - N/A Rain Heavy Rain
11:04 AM 62.6 °F 62.6 °F 100% 30.06 in 1.0 mi SE 10.4 mph - N/A Rain Heavy Rain
11:05 AM 62.6 °F 62.6 °F 100% 30.05 in 1.0 mi SE 10.4 mph - N/A Rain Heavy Rain
11:06 AM 62.6 °F 62.6 °F 100% 30.05 in 1.0 mi SE 10.4 mph - N/A Rain Heavy Rain
11:07 AM 62.6 °F 62.6 °F 100% 30.05 in 1.2 mi SE 10.4 mph - N/A Rain Heavy Rain
11:11 AM 62.6 °F 62.6 °F 100% 30.05 in 1.5 mi SE 10.4 mph - N/A Rain Heavy Rain
11:13 AM 62.6 °F 62.6 °F 100% 30.05 in 1.8 mi SE 11.5 mph - N/A Rain Rain
11:20 AM 62.6 °F 62.6 °F 100% 30.05 in 2.0 mi SE 11.5 mph 18.4 mph N/A Rain Rain
11:23 AM 62.6 °F 62.6 °F 100% 30.05 in 1.8 mi SE 12.7 mph 18.4 mph N/A Rain Heavy Rain
11:25 AM 62.6 °F 62.6 °F 100% 30.05 in 1.5 mi SE 12.7 mph 18.4 mph N/A Rain Heavy Rain
11:26 AM 62.6 °F 62.6 °F 100% 30.05 in 1.2 mi SE 12.7 mph 18.4 mph N/A Rain Heavy Rain
11:28 AM 62.6 °F 62.6 °F 100% 30.05 in 1.0 mi SE 11.5 mph - N/A Rain Heavy Rain
11:30 AM 62.6 °F 62.6 °F 100% 30.05 in 1.0 mi SE 11.5 mph - N/A Rain Heavy Rain
11:31 AM 62.6 °F 62.6 °F 100% 30.04 in 1.0 mi SE 11.5 mph - N/A Rain Heavy Rain
11:32 AM 62.6 °F 62.6 °F 100% 30.04 in 0.8 mi SE 10.4 mph - N/A Rain Heavy Rain
11:33 AM 62.6 °F 62.6 °F 100% 30.04 in 1.0 mi ESE 10.4 mph - N/A Rain Heavy Rain
11:34 AM 62.6 °F 62.6 °F 100% 30.04 in 1.0 mi ESE 11.5 mph - N/A Rain Heavy Rain
11:36 AM 62.6 °F 62.6 °F 100% 30.04 in 1.0 mi ESE 13.8 mph - N/A Rain Rain
11:37 AM 62.6 °F 62.6 °F 100% 30.04 in 1.2 mi ESE 13.8 mph - N/A Rain Rain
11:39 AM 62.6 °F 62.6 °F 100% 30.04 in 1.5 mi ESE 11.5 mph - N/A Rain Rain
11:42 AM 62.6 °F 62.6 °F 100% 30.04 in 1.8 mi ESE 10.4 mph 18.4 mph N/A Rain Rain
11:45 AM 62.6 °F 62.6 °F 100% 30.04 in 2.0 mi ESE 10.4 mph 18.4 mph N/A Rain Rain
11:51 AM 62.6 °F 62.6 °F 100% 30.04 in 2.5 mi SE 10.4 mph - N/A Rain Light Rain
11:54 AM 62.6 °F 62.6 °F 100% 30.04 in 3.0 mi SE 9.2 mph - N/A Rain Light Rain
11:58 AM 62.6 °F 62.6 °F 100% 30.04 in 4.0 mi SE 9.2 mph - 0.40 in Rain Light Rain
12:02 PM 62.6 °F 62.6 °F 100% 30.03 in 4.0 mi SE 11.5 mph - N/A Rain Light Rain
12:22 PM 62.6 °F 62.6 °F 100% 30.02 in 6.0 mi SE 10.4 mph - N/A   Light Drizzle
12:24 PM 62.6 °F 62.6 °F 100% 30.02 in 6.0 mi SE 12.7 mph 19.6 mph N/A   Light Drizzle
12:27 PM 62.6 °F 62.6 °F 100% 30.02 in 7.0 mi SE 10.4 mph 19.6 mph N/A   Overcast
12:29 PM 62.6 °F 62.6 °F 100% 30.02 in 8.0 mi SE 9.2 mph 19.6 mph N/A   Overcast
12:44 PM 62.6 °F 62.6 °F 100% 30.01 in 9.0 mi SE 10.4 mph 18.4 mph N/A   Overcast
12:51 PM 62.6 °F 62.6 °F 100% 30.01 in 10.0 mi SE 10.4 mph - N/A   Overcast
12:58 PM 63.1 °F 63.1 °F 100% 30.01 in 10.0 mi SE 9.2 mph - 0.03 in   Overcast
12:59 PM 62.6 °F 62.6 °F 100% 30.01 in 10.0 mi SE 10.4 mph - N/A Rain Light Rain
1:04 PM 62.6 °F 62.6 °F 100% 30.01 in 4.0 mi SE 11.5 mph - N/A Rain Heavy Rain
1:07 PM 62.6 °F 62.6 °F 100% 30.00 in 2.5 mi SE 9.2 mph - N/A Rain Heavy Rain
1:09 PM 62.6 °F 62.6 °F 100% 30.00 in 2.0 mi SE 10.4 mph - N/A Rain Heavy Rain
1:12 PM 62.6 °F 62.6 °F 100% 30.00 in 1.8 mi SE 10.4 mph - N/A Rain Heavy Rain
1:18 PM 62.6 °F 62.6 °F 100% 29.99 in 2.0 mi SE 9.2 mph - N/A Rain Light Rain
1:22 PM 62.6 °F 62.6 °F 100% 29.99 in 2.5 mi SE 10.4 mph - N/A Rain Rain
1:23 PM 62.6 °F 62.6 °F 100% 29.99 in 3.0 mi SE 10.4 mph - N/A Rain Rain
1:26 PM 62.6 °F 62.6 °F 100% 29.99 in 4.0 mi SE 12.7 mph - N/A Rain Rain
1:32 PM 62.6 °F 62.6 °F 100% 29.98 in 5.0 mi SE 13.8 mph - N/A Rain Light Rain
1:39 PM 62.6 °F 62.6 °F 100% 29.98 in 7.0 mi SE 10.4 mph - N/A Rain Light Rain
1:43 PM 62.6 °F 62.6 °F 100% 29.98 in 8.0 mi SSE 10.4 mph - N/A Rain Light Rain
1:45 PM 62.6 °F 62.6 °F 100% 29.98 in 8.0 mi SE 8.1 mph 16.1 mph N/A Rain Light Rain
1:48 PM 62.6 °F 62.6 °F 100% 29.98 in 8.0 mi SE 10.4 mph 16.1 mph N/A Rain Light Rain
1:50 PM 62.6 °F 62.6 °F 100% 29.98 in 9.0 mi SE 10.4 mph 16.1 mph N/A Rain Light Rain
1:56 PM 62.6 °F 62.6 °F 100% 29.97 in 9.0 mi SE 10.4 mph - N/A Rain Light Rain
1:58 PM 63.1 °F 63.1 °F 100% 29.97 in 10.0 mi SE 9.2 mph - 0.22 in Rain Light Rain
2:06 PM 62.6 °F 62.6 °F 100% 29.96 in 10.0 mi SE 10.4 mph - N/A   Overcast
2:09 PM 62.6 °F 62.6 °F 100% 29.96 in 10.0 mi SE 11.5 mph - N/A Rain Light Rain
2:15 PM 62.6 °F 62.6 °F 100% 29.95 in 5.0 mi SE 12.7 mph - N/A Rain Light Rain
2:22 PM 62.6 °F 62.6 °F 100% 29.95 in 5.0 mi SE 11.5 mph - N/A   Overcast
2:29 PM 62.6 °F 62.6 °F 100% 29.94 in 10.0 mi SE 10.4 mph - N/A   Overcast
2:32 PM 64.4 °F 64.4 °F 100% 29.94 in 10.0 mi SSE 10.4 mph - N/A   Overcast
2:55 PM 64.4 °F 64.4 °F 100% 29.93 in 10.0 mi SSE 9.2 mph 18.4 mph N/A   Overcast
2:58 PM 64.0 °F 64.0 °F 100% 29.93 in 10.0 mi SSE 10.4 mph 18.4 mph 0.00 in   Overcast
3:05 PM 64.4 °F 64.4 °F 100% 29.93 in 10.0 mi SSE 10.4 mph - N/A   Overcast
3:37 PM 64.4 °F 64.4 °F 100% 29.93 in 10.0 mi SSE 10.4 mph - N/A   Overcast
3:58 PM 65.1 °F 65.1 °F 100% 29.92 in 10.0 mi SSE 10.4 mph - N/A   Overcast
4:54 PM 66.2 °F 66.2 °F 100% 29.90 in 10.0 mi SSE 9.2 mph - N/A   Light Drizzle
4:58 PM 65.7 °F 65.7 °F 100% 29.90 in 10.0 mi SSE 10.4 mph - 0.01 in   Light Drizzle
5:09 PM 66.2 °F 66.2 °F 100% 29.91 in 10.0 mi SSE 11.5 mph - N/A   Overcast
5:58 PM 66.0 °F 66.0 °F 100% 29.90 in 10.0 mi SSE 10.4 mph - 0.00 in   Overcast
6:12 PM 66.2 °F 66.2 °F 100% 29.89 in 10.0 mi SSE 8.1 mph - N/A   Overcast
6:58 PM 66.6 °F 66.6 °F 100% 29.90 in 10.0 mi SSE 11.5 mph - N/A   Overcast
7:17 PM 66.2 °F 66.2 °F 100% 29.89 in 10.0 mi SE 10.4 mph - N/A   Overcast
7:58 PM 66.7 °F 66.7 °F 100% 29.89 in 10.0 mi SSE 11.5 mph - N/A   Overcast
8:42 PM 68.0 °F 68.0 °F 100% 29.91 in 10.0 mi South 11.5 mph 19.6 mph N/A   Overcast
8:58 PM 67.8 °F 67.8 °F 100% 29.91 in 10.0 mi South 12.7 mph - N/A   Overcast
9:02 PM 68.0 °F 68.0 °F 100% 29.91 in 10.0 mi South 12.7 mph - N/A   Overcast
9:45 PM 68.0 °F 68.0 °F 100% 29.93 in 10.0 mi South 11.5 mph - N/A   Overcast
9:58 PM 68.0 °F 68.0 °F 100% 29.93 in 10.0 mi South 10.4 mph - N/A   Overcast
10:58 PM 69.1 °F 69.1 °F 100% 29.92 in 10.0 mi South 13.8 mph - N/A   Overcast
10:59 PM 69.8 °F 69.8 °F 100% 29.92 in 9.0 mi South 13.8 mph - N/A   Overcast
11:08 PM 69.8 °F 69.8 °F 100% 29.91 in 10.0 mi South 15.0 mph - N/A   Overcast
11:30 PM 69.8 °F 69.8 °F 100% 29.90 in 10.0 mi South 13.8 mph - N/A   Overcast
11:53 PM 69.8 °F 69.8 °F 100% 29.91 in 10.0 mi South 15.0 mph - N/A   Overcast
11:58 PM 69.8 °F 69.8 °F 100% 29.90 in 10.0 mi South 13.8 mph - N/A   Overcast